sat.trackr.live / text

‹ back to catalog

PREFIRE-2

NORAD 59881 · 2024-099A

PAYLOAD ACTIVE UNKNOWN

§ Identity

Operator
Country
US
Launch date
2024-05-25
Launch site
RLLB
Launch vehicle
Mass (kg)
RCS (m²)

External: N2YO · Heavens-Above · Gunter

§ Orbital elements

Epoch: 2026-05-25T02:28:54.560928Z

Period
94.68 min
Inclination
97.4113°
Eccentricity
0.0010467
Mean motion
15.20891526 rev/d
Perigee alt
495.9 km
Apogee alt
510.4 km
Semi-major
6,881.3 km
B*
1.4396e-4
RAAN
1.6800°
Arg perigee
290.0053°
Mean anomaly
70.0055°
Rev number
11,062

§ Raw data

PREFIRE-21 59881U 24099A   26145.10340927  .00003116  00000+0  14396-3 0  99952 59881  97.4113   1.6800 0010467 290.0053  70.0055 15.20891526110626

JSON: /api/v1/satellites/59881 · /tle

For live sub-satellite position, see the globe view (requires WebGL).

§ Visibility from observer

Set your observer location to see the next 7 days of passes ≥ 10°. The values pass through the URL so the page stays shareable.

No JS? Fill the form by hand. The geolocation button needs JavaScript.

§ Radio — SatNOGS DB

ModeDescriptionDownlinkUplink
S-band telemetry 2.213 GHz

1 transmitter · refreshed weekly from db.satnogs.org